Weather in Gigant

Russia / Rostov Oblast     46°30′22″N   41°20′18″E
temp.,
°C
wind,
m/s
gust,
m/s
humid.,
%
clouds,
%
prec.,
mm/h
press.,
hPa
HPBL,
m
28 february, sun
sun2800:00+3wnw3896100 1.0 1014218
03:00+2wnw3597100 1.2 1015158
06:00+2wnw2295100 0.5 101537
09:00+2nnw3588100 0.5 1016336
12:00+3nnw338372 0.0 1017488
15:00+4nw347586 0.0 1017754
18:00+4wnw258098 0.1 1018350
21:00+3nw238398 0.2 102082
1 march, mon
mon100:00+2nw2285100 0.1 102138
03:00+1wnw239599 0.2 102298
06:00+1wsw359488 0.0 1022345
09:00+2w349292 0.1 1024309
12:00+2w359397 0.1 1025377
15:00+4wnw347798 0.3 1025679
18:00+2nw2285100 0.1 102657
21:000n119694 0.2 102822
2 march, tue
tue200:000wsw129413 0.0 102821
03:00−1wnw239315 0.0 102849
06:00−1w239539 0.0 102864
09:00+2w358144 0.0 1028493
12:00+5w686225 0.0 10261199
15:00+5w7106255 0.0 10241331
18:00+2wsw61371100 0.0 1022755
21:00+1w81573100 0.0 1020751
3 march, wed
wed300:00+1wsw91878100 0.0 1018740
03:00+1wsw111984100 0.0 1016984
06:00+1wsw121996100 0.5 10131114
09:00+1wnw81396100 2.9 1014745
12:00+2wnw71194100 0.6 1016726
15:00+3nw697899 1.0 1018888
18:00+2nw5107678 0.3 1020537
21:00+1wnw497973 0.3 1023305
4 march, thu
thu400:000wnw489088 0.0 1024218
03:00−1wnw488750 0.0 1025226
06:00−2w37890 0.0 1026242
09:00+1w46620 0.0 1026498
12:00+5wsw57530 0.0 1025873
15:00+6wsw68530 0.0 10231118
18:00+2sw49700 0.0 1021208
21:00+1sw511770 0.0 1022267